Vertical_Velocity
0 0 0 0 -0 0 0 0 0 1 1 1 1 1 1 1 1 0 0 1 1 0 0 0 0 0 1 1 1 1 0 0 0 -0 -0 -0 -1 -1 -1 -1 -1 -1 -1 -1 -0 -0 -1 -1 -1 -1 -1 -1 0 0 -0 0 0 -0 -0 1 0 0 1 1 -0 -0 -1 -2 -2
0 0 0 0 0 1 1 1 1 1 1 1 1 0 0 1 1 0 0 1 1 1 1 1 1 1 1 1 1 1 0 0 -0 -1 -1 -1 -2 -1 -1 -1 -1 -1 -1 -0 -0 -0 -1 -1 -1 -1 -1 -1 0 0 -1 -0 1 1 0 -0 0 1 2 1 1 1 1 -1 -1
-0 -0 0 0 0 0 0 0 0 0 0 -0 -0 -0 -0 -0 0 0 0 0 0 1 1 1 1 1 1 0 0 0 0 -0 -0 -0 -1 -2 -1 -1 -1 -1 -1 -1 -0 0 -0 -1 -1 -1 -1 -1 -1 -1 -0 -0 -1 -1 2 2 1 -0 0 1 2 0 2 3 3 1 0
-1 -1 -0 -0 -0 -0 -0 0 0 0 0 0 -0 -0 0 0 0 0 0 0 0 1 1 0 0 0 0 0 0 0 0 -0 0 -0 -1 -1 -1 -1 -1 -1 -0 -0 -0 0 -0 -1 -1 -1 -1 -1 -1 -1 -1 -1 -1 0 2 2 2 1 2 2 1 1 2 3 3 2 1
-0 -0 -0 -0 -0 -0 -0 0 0 0 0 0 0 0 0 -0 -0 -1 -1 -1 -1 -1 -1 -1 -1 -1 -1 -0 -0 -0 -0 -0 0 -0 -1 -1 -1 -1 -1 -1 -1 -1 -1 -1 -1 -1 -1 -1 -1 -1 -1 -1 -1 -1 -0 1 2 2 1 1 1 1 2 3 2 3 3 2 1
-0 -0 -1 -1 -0 -0 -0 -1 -1 -1 -1 -1 -1 -1 -2 -2 -2 -2 -2 -3 -3 -3 -2 -2 -2 -2 -2 -1 -1 -1 -1 -1 -1 -1 -1 -2 -2 -2 -1 -1 -2 -2 -2 -2 -2 -2 -2 -2 -2 -2 -2 -1 -1 -1 0 2 2 1 0 1 -0 1 3 3 2 2 2 1 1
0 -0 -0 -1 -1 -1 -1 -1 -1 -2 -2 -2 -2 -2 -2 -3 -3 -3 -3 -3 -3 -3 -3 -3 -3 -3 -3 -2 -2 -2 -2 -2 -2 -2 -2 -2 -2 -2 -2 -2 -2 -2 -2 -3 -2 -3 -3 -2 -2 -2 -2 -0 -0 -0 -0 2 0 -1 -1 -1 -1 2 4 2 1 1 1 -1 0
0 0 0 -0 -1 -1 -1 -1 -2 -2 -2 -2 -2 -2 -2 -2 -2 -2 -2 -2 -2 -2 -3 -2 -3 -3 -3 -3 -2 -2 -2 -2 -2 -2 -1 -1 -1 -1 -1 -1 -2 -2 -2 -2 -1 -2 -2 -2 -1 -1 -1 -0 -0 -0 -1 0 -1 -1 -1 -1 -1 1 3 1 1 0 -0 -1 -0
1 0 0 -0 -0 -1 -1 -1 -1 -1 -1 -1 -1 -1 -1 -1 -0 -0 -0 -0 -1 -1 -1 -1 -2 -2 -2 -2 -1 -1 -1 -1 -1 -1 -1 0 0 0 -0 -0 -0 -1 -1 -0 0 -0 -1 -0 -0 -0 -1 0 0 -1 -1 -0 -1 -1 -1 -1 -1 0 1 1 0 -1 -1 -1 0
1 0 0 0 0 0 0 1 0 0 0 0 0 0 0 0 0 0 0 -1 -1 -1 -0 -1 -1 -1 -0 -0 0 0 0 0 0 1 1 1 1 1 1 1 1 1 1 1 2 1 1 1 1 0 -0 1 1 -0 -1 -1 -1 -1 -1 -1 0 0 -0 -1 -1 -1 -1 -0 1
0 0 0 1 1 1 1 1 1 1 1 2 1 1 1 1 0 -0 -1 -1 -0 -0 -1 -2 -1 -0 -0 -0 0 0 0 1 1 2 2 2 2 2 2 2 2 2 2 2 2 2 2 2 1 1 -0 -0 0 -0 -1 -2 -1 -1 -1 -2 -0 -0 -1 -3 -2 -1 -1 -0 1
1 1 2 3 2 2 2 2 2 2 2 2 2 2 1 1 0 -0 -0 -0 -0 -1 -2 -2 -1 -1 -1 -1 -1 -1 0 1 1 2 2 2 2 3 3 3 2 2 2 2 2 2 2 1 0 -0 -1 -2 -2 -2 -2 -2 -2 -2 -2 -3 -2 -2 -3 -3 -2 -1 -1 -0 0
2 3 3 4 3 2 2 1 1 1 1 1 1 1 1 1 1 1 1 1 0 0 -0 -1 -1 -1 -1 -2 -2 -1 -0 0 1 1 1 2 2 2 2 2 2 1 1 0 -0 -0 -1 -2 -2 -2 -3 -3 -3 -3 -3 -3 -3 -3 -3 -3 -3 -3 -2 -2 -2 -1 -1 -0 -1
3 4 3 3 2 2 1 1 2 2 2 1 1 1 1 1 1 1 1 1 1 1 0 0 -0 -0 -1 -1 -1 -1 -1 -0 -0 0 0 0 0 0 0 0 -0 -1 -1 -2 -2 -2 -3 -3 -3 -3 -3 -3 -3 -3 -3 -3 -3 -3 -3 -2 -2 -2 -1 -1 -0 -0 0 -0 -0
3 3 2 1 1 1 1 1 2 2 2 1 0 -0 -0 -0 0 0 -0 -0 -0 -0 0 0 0 0 0 0 0 0 0 0 0 0 -0 -0 -0 -0 -1 -1 -1 -2 -2 -3 -3 -3 -3 -3 -3 -3 -3 -3 -3 -3 -3 -2 -2 -2 -1 -1 -1 -1 -1 -0 0 0 0 0 1
2 2 1 1 1 1 1 1 2 2 1 0 -1 -2 -2 -2 -1 -0 -0 -1 -1 -1 -1 -0 0 1 1 1 1 1 1 1 1 1 1 0 -0 -0 -0 -1 -1 -2 -2 -2 -2 -2 -2 -2 -2 -2 -2 -2 -2 -2 -2 -2 -1 -1 -1 -1 -1 -1 -1 -1 -0 -0 0 0 1
1 2 2 3 3 3 2 1 1 0 -0 -1 -2 -3 -3 -3 -1 0 1 1 1 0 -0 -0 0 1 1 1 1 1 1 1 1 1 1 0 0 -0 -0 -1 -1 -1 -1 -2 -2 -2 -2 -2 -2 -2 -2 -2 -2 -1 -1 -1 -1 -1 -1 -1 -1 -1 -1 -1 -1 -0 -0 0 -0
2 3 4 5 5 4 3 1 0 -0 -1 -1 -2 -2 -2 -2 -1 0 2 3 4 3 3 2 1 1 1 1 1 1 0 0 0 0 -0 -0 -1 -1 -1 -1 -2 -2 -2 -2 -2 -2 -2 -2 -2 -2 -2 -1 -1 -1 -1 -0 -0 -0 -0 -0 -0 -0 -0 0 0 1 1 1 0
3 3 4 4 4 3 2 1 0 -0 -1 -0 -0 -0 0 0 0 1 1 2 4 4 4 4 4 3 3 2 2 2 1 0 0 -0 -0 -1 -1 -1 -1 -1 -1 -1 -1 -1 -1 -1 -1 -1 -1 -1 -0 -0 0 0 0 0 0 0 -0 -0 -0 0 0 1 1 1 1 1 0
3 3 3 3 3 2 1 1 0 0 1 1 2 2 2 3 3 2 2 2 2 2 2 3 4 4 4 5 5 4 4 3 2 2 1 1 0 0 -0 -0 -0 0 0 1 1 1 1 2 2 2 2 2 1 1 1 0 0 -0 -0 -0 -0 0 0 -0 -0 -0 -1 -1 -1
3 3 3 2 2 2 1 2 2 3 3 3 4 4 4 4 3 3 3 2 2 1 1 2 2 2 2 2 3 4 5 5 4 3 3 2 1 1 1 0 1 1 1 1 2 2 2 3 2 2 1 1 1 1 0 0 0 0 0 0 -0 -0 -0 -1 -1 -1 -1 -1 -2
3 3 2 2 2 2 2 3 3 3 3 2 2 2 2 2 2 2 2 2 1 1 1 1 1 1 1 1 2 2 3 3 2 2 2 2 2 2 2 2 2 2 2 2 3 3 2 2 1 1 1 0 0 1 1 1 1 1 1 1 0 0 -0 -1 -1 -1 -1 -1 -1
2 2 2 1 1 1 2 2 1 1 1 1 1 1 1 1 1 1 1 1 0 0 1 1 1 1 1 1 1 2 2 1 1 1 1 2 2 2 2 2 2 2 2 2 2 2 1 1 1 1 1 1 1 1 1 1 1 1 1 1 1 1 0 0 0 -0 -0 -0 -1
1 1 1 1 1 1 1 1 1 1 1 1 1 1 1 1 1 1 1 1 1 1 1 2 2 2 2 2 2 2 2 2 2 2 2 2 2 2 2 2 2 2 2 1 1 1 1 1 1 1 1 1 1 1 1 1 1 1 1 1 1 1 1 1 1 1 1 1 0
2 2 2 2 2 2 2 2 2 2 2 2 2 2 2 2 2 2 2 2 2 2 2 3 3 3 3 3 3 3 3 3 3 3 3 3 3 3 3 3 3 3 3 2 2 2 2 2 2 2 2 2 2 2 1 1 1 1 1 1 1 1 1 1 1 1 1 0 0
2 2 2 2 2 3 3 3 3 3 3 3 2 2 2 2 2 2 2 2 2 3 3 3 3 3 3 3 3 3 3 3 3 3 3 3 3 3 3 2 2 2 2 2 2 2 2 2 2 2 2 2 1 1 1 1 1 1 1 1 1 1 1 1 1 0 0 0 -0
2 2 2 2 2 3 3 3 3 3 3 2 2 2 2 2 2 2 2 2 2 2 3 3 3 3 3 3 3 3 3 3 3 3 3 3 2 2 2 2 2 1 1 1 1 1 1 1 1 1 1 1 1 1 1 1 1 1 1 1 1 1 1 1 1 1 1 1 1
2 2 2 2 2 2 2 2 2 2 2 2 2 2 2 2 2 2 2 2 2 2 2 1 2 2 2 1 1 1 1 1 1 1 1 2 2 2 2 2 1 1 1 1 1 1 1 1 1 1 1 1 1 1 1 1 1 1 1 1 1 1 1 1 1 1 1 1 1
2 2 2 2 2 2 2 1 1 1 1 1 1 1 1 1 1 1 1 1 1 1 1 1 1 1 0 0 0 0 -0 -0 -0 -0 0 0 0 1 1 1 1 1 1 1 1 1 1 1 0 1 1 1 1 1 1 1 1 1 1 1 1 0 0 -0 -0 -0 -0 -0 0
1 1 1 1 1 1 1 1 1 1 1 1 1 1 1 1 1 1 1 1 1 1 1 1 1 1 1 1 0 0 0 0 0 0 0 0 0 0 0 1 1 1 1 1 2 2 1 1 0 0 -0 -0 0 0 0 0 0 -0 -0 -0 -0 -0 -0 -1 -1 -1 -1 -1 -1
1 1 1 1 1 1 1 1 1 1 1 2 2 2 1 1 1 1 1 1 1 2 2 1 1 1 1 1 1 1 1 1 1 1 1 1 1 1 1 1 1 1 1 1 2 2 2 2 1 1 0 0 0 0 0 0 0 0 0 0 -0 -0 -0 -0 -0 -0 -1 -1 -1
1 1 1 1 1 2 2 2 2 2 2 2 2 2 1 1 1 1 1 1 1 1 1 1 1 1 1 1 1 2 2 2 2 2 2 1 1 1 1 1 1 1 1 1 1 2 2 3 2 2 1 1 1 1 1 1 2 2 2 1 1 1 1 1 1 1 1 1 1
1 1 1 2 2 2 2 2 2 2 2 2 1 1 1 1 1 1 1 1 1 1 1 2 2 2 1 1 1 1 1 1 1 1 1 1 1 1 1 1 1 1 0 0 0 1 1 2 2 2 2 1 1 1 1 2 2 2 2 2 2 2 2 2 2 1 1 1 1
1 1 2 2 2 2 2 2 2 2 1 1 1 1 1 1 1 1 1 1 1 1 1 2 2 1 1 1 1 1 1 1 1 1 1 1 1 1 1 1 1 1 0 -0 -1 -1 -1 -0 0 1 1 0 0 0 0 0 0 0 0 0 0 0 0 0 0 -0 -0 -0 -0
2 2 2 2 2 2 2 2 1 1 1 1 1 1 1 1 1 1 1 1 1 1 1 1 1 1 1 1 1 1 1 1 1 1 1 1 1 1 1 1 1 1 1 0 -1 -2 -2 -3 -3 -2 -2 -2 -2 -2 -2 -2 -2 -2 -2 -2 -3 -3 -3 -2 -2 -2 -2 -1 -1
2 2 2 2 2 2 2 1 1 1 1 1 1 1 1 1 1 1 1 1 1 0 0 0 0 0 1 1 1 1 1 1 1 1 1 1 1 1 1 1 1 1 0 0 -0 -1 -2 -3 -3 -3 -3 -3 -3 -3 -3 -3 -3 -3 -3 -2 -2 -2 -2 -1 -1 -0 0 1 2
2 2 2 2 1 1 1 1 1 1 1 1 1 1 1 1 1 0 0 0 -0 -0 0 0 0 1 1 1 1 1 1 1 1 1 1 1 1 0 -0 -0 -0 -0 -0 0 -0 -0 -1 -1 -1 -1 -1 -1 -1 -1 -1 -1 -0 -0 0 1 1 1 2 2 3 3 4 4 5
2 1 1 1 1 1 1 0 0 1 1 1 1 1 1 0 0 -0 -0 -0 -0 -0 0 0 1 1 1 1 1 1 1 1 1 0 -0 -1 -0 -0 -1 -1 -1 -1 -0 0 0 0 0 1 1 1 1 1 1 1 1 2 2 2 3 3 3 3 4 4 4 4 4 4 4
1 1 1 1 0 0 0 0 0 0 0 0 0 0 0 -0 -0 -0 -0 -0 0 0 1 1 1 1 1 1 0 0 0 0 -0 -0 -1 -1 -1 -1 -1 -1 -1 -0 0 1 1 1 2 2 2 2 2 3 2 2 3 3 3 3 3 3 3 3 3 3 3 3 2 1 2
1 1 1 0 0 0 0 0 0 0 0 0 0 0 0 0 0 0 0 0 1 1 1 1 1 1 1 0 -0 -0 -1 -1 -1 -1 -1 -1 -1 -0 0 0 0 1 1 2 2 3 3 3 3 3 3 3 3 3 2 2 2 2 2 2 2 2 1 -0 0 1 0 -1 -2
1 0 0 0 0 0 0 0 0 0 0 0 0 -0 0 0 1 1 1 1 1 1 1 1 1 1 0 0 -0 -0 -1 -1 -0 -0 0 0 0 1 1 2 2 2 2 3 3 3 3 3 3 3 2 2 2 2 1 1 1 1 0 0 1 1 -0 -2 -2 -2 -2 -2 -4
Height
5628 5630 5631 5632 5633 5634 5635 5636 5637 5637 5638 5639 5640 5641 5642 5643 5644 5645 5646 5647 5648 5649 5651 5652 5653 5654 5656 5657 5659 5660 5661 5662 5664 5665 5666 5667 5668 5670 5671 5672 5674 5675 5677 5678 5679 5681 5682 5682 5683 5685 5686 5687 5688 5689 5689 5690 5691 5692 5693 5694 5694 5695 5696 5697 5697 5697 5697 5698 5698
5627 5627 5629 5629 5630 5631 5632 5633 5634 5635 5635 5636 5637 5638 5639 5640 5640 5641 5642 5643 5644 5645 5647 5648 5649 5650 5652 5653 5654 5655 5657 5658 5659 5661 5662 5663 5664 5666 5667 5668 5670 5671 5673 5674 5675 5677 5677 5678 5680 5681 5682 5683 5684 5685 5686 5687 5687 5688 5689 5690 5690 5691 5692 5693 5693 5693 5693 5693 5694
5624 5625 5626 5627 5628 5629 5630 5631 5631 5632 5632 5633 5634 5635 5636 5637 5637 5638 5639 5640 5641 5642 5643 5644 5645 5646 5647 5648 5650 5651 5652 5654 5655 5656 5657 5659 5660 5662 5663 5664 5666 5667 5669 5670 5671 5672 5673 5674 5676 5677 5678 5679 5680 5681 5682 5682 5684 5685 5685 5686 5686 5687 5688 5688 5689 5689 5689 5689 5689
5622 5623 5624 5625 5626 5627 5627 5628 5629 5630 5630 5631 5631 5632 5633 5633 5634 5635 5636 5636 5637 5638 5639 5640 5641 5642 5643 5644 5646 5647 5648 5649 5651 5652 5653 5655 5656 5657 5659 5660 5662 5664 5665 5666 5667 5668 5669 5671 5672 5673 5674 5675 5676 5677 5678 5678 5680 5680 5681 5681 5682 5682 5683 5683 5684 5684 5685 5685 5685
5620 5622 5622 5623 5624 5625 5625 5626 5627 5627 5628 5628 5629 5630 5630 5631 5631 5632 5632 5633 5634 5635 5635 5636 5637 5638 5639 5640 5642 5643 5644 5646 5647 5648 5649 5651 5652 5653 5655 5657 5658 5659 5661 5662 5663 5664 5665 5666 5667 5668 5670 5671 5672 5672 5673 5674 5675 5676 5676 5676 5677 5678 5678 5679 5679 5679 5680 5680 5680
5619 5620 5620 5621 5622 5622 5623 5624 5624 5625 5625 5626 5627 5627 5627 5628 5628 5629 5629 5630 5631 5631 5632 5633 5634 5635 5636 5637 5638 5639 5640 5642 5643 5644 5645 5647 5648 5649 5651 5653 5654 5655 5657 5658 5659 5660 5661 5662 5663 5664 5665 5667 5667 5668 5669 5670 5670 5671 5671 5672 5672 5673 5673 5674 5674 5674 5674 5674 5675
5617 5618 5619 5620 5620 5621 5622 5622 5622 5623 5623 5623 5624 5624 5625 5625 5625 5626 5626 5627 5627 5628 5628 5629 5630 5631 5632 5633 5634 5635 5636 5637 5639 5640 5641 5643 5644 5646 5647 5648 5650 5651 5652 5654 5655 5656 5657 5658 5659 5660 5661 5662 5663 5664 5664 5665 5665 5666 5667 5667 5667 5668 5669 5669 5668 5668 5669 5669 5670
5616 5617 5618 5618 5619 5620 5620 5620 5621 5621 5621 5621 5622 5622 5622 5622 5622 5622 5622 5623 5623 5624 5624 5625 5626 5627 5627 5629 5630 5631 5632 5633 5635 5636 5637 5639 5640 5642 5643 5644 5646 5647 5648 5650 5651 5652 5653 5654 5655 5656 5657 5658 5659 5659 5659 5660 5660 5661 5662 5662 5662 5663 5663 5663 5663 5663 5664 5664 5665
5616 5616 5617 5617 5618 5618 5619 5619 5619 5619 5619 5619 5619 5619 5619 5619 5619 5619 5619 5619 5619 5619 5620 5620 5621 5622 5623 5624 5625 5627 5628 5629 5631 5632 5633 5635 5637 5638 5639 5641 5642 5643 5644 5646 5647 5648 5649 5650 5651 5652 5652 5653 5654 5654 5655 5655 5656 5656 5657 5657 5657 5658 5658 5658 5658 5658 5659 5659 5660
5615 5616 5616 5617 5617 5617 5618 5618 5618 5618 5617 5617 5617 5617 5617 5616 5616 5616 5615 5615 5615 5615 5615 5616 5616 5617 5618 5619 5620 5622 5623 5624 5626 5627 5629 5631 5632 5634 5635 5637 5638 5639 5641 5642 5643 5644 5645 5646 5647 5647 5648 5649 5649 5650 5650 5651 5651 5652 5652 5652 5653 5653 5653 5653 5653 5653 5654 5654 5655
5615 5616 5616 5617 5617 5617 5617 5617 5617 5617 5616 5616 5616 5615 5615 5614 5613 5613 5612 5612 5612 5612 5612 5612 5612 5613 5613 5614 5615 5617 5618 5620 5621 5623 5625 5626 5628 5630 5631 5632 5634 5635 5637 5638 5639 5640 5641 5642 5642 5643 5644 5644 5645 5645 5646 5646 5647 5647 5647 5647 5648 5648 5648 5648 5648 5649 5649 5649 5650
5615 5615 5616 5616 5616 5616 5616 5616 5616 5616 5615 5615 5615 5614 5613 5612 5612 5611 5610 5609 5609 5609 5608 5608 5609 5609 5610 5610 5612 5612 5614 5616 5617 5619 5621 5622 5624 5626 5627 5629 5630 5632 5633 5634 5635 5636 5637 5638 5639 5639 5640 5640 5641 5641 5642 5642 5642 5642 5643 5643 5643 5643 5643 5643 5643 5644 5644 5644 5645
5614 5615 5615 5615 5615 5616 5616 5616 5615 5615 5615 5614 5614 5613 5612 5612 5611 5610 5609 5608 5607 5607 5606 5606 5606 5606 5607 5607 5608 5609 5611 5612 5614 5616 5617 5619 5621 5622 5624 5626 5627 5628 5630 5631 5632 5633 5634 5635 5635 5636 5636 5637 5637 5637 5637 5638 5638 5638 5638 5638 5638 5639 5639 5639 5639 5639 5639 5639 5639
5614 5614 5614 5615 5615 5615 5615 5615 5615 5615 5615 5614 5613 5613 5612 5611 5610 5609 5608 5607 5607 5606 5605 5605 5604 5604 5604 5605 5606 5607 5608 5609 5611 5612 5614 5616 5618 5620 5621 5623 5624 5626 5627 5628 5629 5630 5631 5631 5632 5632 5633 5633 5634 5634 5634 5634 5634 5634 5634 5634 5634 5634 5634 5634 5634 5634 5634 5634 5634
5613 5614 5614 5614 5614 5615 5615 5615 5615 5615 5614 5614 5613 5612 5612 5611 5610 5609 5608 5607 5607 5606 5605 5604 5603 5603 5603 5603 5604 5605 5606 5607 5608 5610 5612 5614 5615 5617 5619 5620 5622 5623 5624 5625 5626 5627 5628 5628 5629 5630 5630 5630 5630 5630 5631 5631 5630 5630 5630 5630 5630 5630 5630 5630 5630 5630 5630 5630 5630
5613 5613 5614 5614 5614 5614 5615 5615 5615 5614 5614 5614 5613 5612 5612 5611 5610 5609 5609 5608 5607 5606 5605 5604 5604 5603 5603 5603 5603 5604 5605 5606 5607 5609 5610 5612 5614 5615 5617 5618 5620 5621 5622 5623 5624 5625 5625 5626 5626 5627 5627 5627 5627 5627 5627 5627 5627 5627 5627 5627 5627 5627 5627 5627 5627 5627 5627 5627 5627
5613 5614 5614 5614 5614 5614 5614 5614 5614 5614 5614 5614 5613 5612 5612 5611 5610 5610 5609 5608 5608 5607 5606 5606 5605 5605 5605 5604 5604 5605 5605 5606 5607 5608 5610 5611 5613 5614 5616 5617 5618 5619 5620 5621 5622 5622 5623 5623 5624 5624 5624 5625 5625 5625 5625 5625 5625 5624 5624 5624 5624 5624 5624 5623 5624 5624 5624 5624 5624
5613 5614 5614 5614 5614 5614 5614 5614 5614 5614 5614 5613 5613 5612 5612 5612 5611 5611 5610 5610 5609 5608 5608 5607 5607 5606 5606 5606 5606 5606 5607 5607 5608 5609 5610 5612 5613 5614 5615 5616 5617 5618 5619 5620 5620 5621 5621 5622 5622 5622 5622 5623 5623 5623 5623 5623 5623 5622 5622 5622 5622 5622 5622 5622 5622 5622 5622 5622 5622
5614 5614 5614 5614 5614 5614 5615 5614 5614 5614 5614 5614 5613 5613 5613 5612 5612 5612 5611 5611 5610 5610 5609 5609 5609 5608 5608 5608 5608 5608 5608 5609 5610 5611 5612 5612 5613 5614 5615 5616 5617 5617 5618 5619 5619 5620 5620 5621 5621 5621 5622 5622 5622 5622 5622 5622 5621 5621 5621 5621 5620 5620 5620 5620 5620 5620 5620 5620 5620
5614 5614 5614 5614 5615 5615 5615 5615 5615 5614 5614 5614 5614 5614 5613 5613 5613 5612 5612 5612 5611 5611 5611 5611 5610 5610 5610 5610 5610 5610 5610 5611 5611 5612 5613 5613 5614 5615 5616 5617 5617 5617 5618 5618 5619 5619 5619 5620 5620 5620 5620 5621 5621 5621 5620 5620 5620 5620 5619 5619 5619 5619 5618 5618 5618 5618 5618 5617 5617
5614 5614 5614 5615 5615 5615 5615 5615 5615 5615 5615 5614 5614 5614 5614 5614 5614 5613 5613 5613 5612 5612 5612 5612 5611 5611 5611 5611 5611 5612 5612 5612 5613 5613 5614 5615 5615 5616 5616 5617 5617 5617 5618 5618 5618 5619 5619 5619 5619 5619 5620 5619 5619 5619 5619 5619 5619 5618 5618 5618 5618 5617 5617 5617 5617 5616 5616 5616 5615
5614 5614 5615 5615 5615 5615 5615 5615 5615 5615 5615 5615 5615 5615 5615 5615 5614 5614 5614 5614 5613 5613 5613 5613 5612 5612 5612 5612 5612 5613 5613 5613 5614 5614 5615 5615 5616 5616 5617 5617 5617 5617 5618 5618 5618 5618 5618 5618 5618 5619 5619 5619 5618 5618 5618 5618 5618 5617 5617 5617 5617 5616 5616 5616 5615 5615 5614 5614 5613
5614 5615 5615 5615 5615 5615 5615 5615 5616 5616 5616 5616 5616 5616 5616 5615 5615 5615 5615 5615 5615 5614 5614 5614 5614 5614 5614 5614 5614 5614 5614 5615 5615 5615 5616 5616 5616 5617 5617 5617 5617 5617 5617 5618 5618 5618 5618 5618 5618 5618 5618 5618 5618 5618 5617 5617 5617 5617 5617 5616 5616 5616 5615 5615 5614 5614 5613 5612 5612
5615 5615 5616 5616 5616 5616 5616 5616 5617 5617 5617 5617 5617 5617 5617 5616 5616 5616 5616 5616 5616 5616 5615 5615 5615 5615 5615 5615 5615 5616 5616 5616 5616 5616 5617 5617 5617 5617 5617 5617 5617 5617 5617 5618 5618 5618 5618 5618 5618 5618 5617 5617 5617 5617 5617 5617 5616 5616 5616 5615 5615 5614 5614 5613 5613 5612 5612 5611 5610
5616 5616 5617 5617 5617 5617 5617 5617 5617 5617 5617 5617 5617 5617 5617 5617 5617 5617 5617 5617 5617 5616 5616 5616 5616 5616 5616 5616 5616 5617 5617 5617 5617 5617 5617 5617 5617 5617 5617 5618 5618 5618 5617 5617 5617 5617 5617 5617 5617 5617 5617 5617 5616 5616 5616 5615 5615 5614 5614 5614 5613 5613 5612 5612 5611 5611 5610 5609 5608
5617 5617 5617 5617 5617 5618 5618 5618 5618 5618 5618 5618 5618 5618 5618 5618 5617 5617 5617 5617 5617 5617 5617 5617 5617 5617 5617 5617 5617 5617 5617 5617 5617 5617 5617 5617 5617 5617 5617 5617 5617 5617 5617 5617 5617 5617 5616 5616 5616 5616 5615 5615 5615 5614 5614 5613 5613 5612 5612 5612 5611 5611 5610 5609 5609 5608 5607 5606 5606
5617 5617 5618 5618 5618 5618 5618 5618 5618 5618 5618 5618 5618 5618 5618 5618 5618 5618 5618 5617 5617 5617 5617 5617 5617 5617 5617 5617 5617 5616 5616 5616 5616 5616 5616 5616 5616 5616 5616 5616 5616 5616 5616 5616 5615 5615 5615 5615 5614 5614 5614 5613 5613 5612 5612 5612 5611 5610 5610 5609 5608 5608 5607 5607 5606 5605 5604 5604 5603
5618 5618 5618 5618 5618 5618 5618 5618 5619 5619 5619 5619 5619 5618 5618 5618 5618 5618 5618 5618 5618 5617 5617 5617 5617 5617 5617 5617 5616 5616 5616 5616 5616 5616 5616 5616 5616 5615 5615 5615 5615 5615 5615 5614 5614 5614 5613 5613 5613 5612 5612 5612 5611 5610 5610 5609 5609 5608 5607 5607 5606 5605 5604 5604 5603 5602 5601 5601 5600
5618 5618 5618 5618 5619 5619 5619 5619 5619 5619 5619 5619 5619 5619 5619 5619 5618 5618 5618 5618 5618 5618 5618 5617 5617 5617 5617 5617 5617 5616 5616 5616 5616 5616 5615 5615 5615 5615 5615 5614 5614 5614 5614 5613 5613 5613 5612 5612 5611 5611 5610 5610 5609 5609 5608 5607 5607 5606 5605 5605 5604 5603 5602 5601 5601 5600 5599 5598 5597
5618 5618 5619 5619 5619 5619 5619 5619 5619 5619 5619 5619 5619 5619 5619 5619 5619 5619 5619 5618 5618 5618 5618 5618 5617 5617 5617 5617 5617 5616 5616 5616 5616 5615 5615 5615 5615 5614 5614 5614 5613 5613 5613 5613 5612 5612 5611 5611 5610 5610 5609 5608 5608 5607 5606 5606 5605 5604 5603 5603 5602 5601 5600 5599 5598 5597 5596 5595 5594
5619 5619 5619 5619 5620 5620 5620 5620 5620 5620 5620 5620 5620 5619 5619 5619 5619 5619 5619 5619 5618 5618 5618 5618 5617 5617 5617 5617 5616 5616 5616 5616 5615 5615 5615 5614 5614 5614 5613 5613 5612 5612 5612 5612 5611 5610 5610 5609 5609 5608 5607 5607 5606 5605 5604 5604 5603 5602 5601 5600 5600 5599 5597 5597 5596 5594 5593 5592 5591
5619 5619 5620 5620 5620 5620 5620 5620 5620 5620 5620 5620 5620 5620 5619 5619 5619 5619 5618 5618 5618 5618 5618 5617 5617 5617 5617 5616 5616 5616 5615 5615 5614 5614 5614 5613 5613 5612 5612 5612 5611 5610 5610 5610 5609 5608 5608 5607 5607 5606 5605 5605 5604 5603 5602 5601 5601 5600 5599 5598 5597 5596 5595 5594 5592 5591 5590 5589 5588
5620 5620 5620 5620 5620 5620 5620 5620 5620 5620 5620 5620 5620 5619 5619 5619 5619 5618 5618 5618 5617 5617 5617 5617 5617 5616 5616 5616 5615 5615 5614 5614 5613 5613 5612 5612 5612 5611 5611 5610 5609 5608 5608 5607 5607 5606 5605 5605 5604 5603 5603 5602 5601 5600 5599 5598 5597 5596 5595 5594 5593 5592 5591 5590 5589 5587 5586 5585 5584
5620 5620 5620 5620 5620 5620 5620 5620 5620 5620 5620 5620 5619 5619 5619 5618 5618 5618 5617 5617 5617 5617 5616 5616 5616 5615 5615 5614 5614 5614 5613 5613 5612 5612 5611 5611 5610 5609 5609 5608 5607 5607 5606 5605 5604 5603 5602 5602 5601 5600 5599 5598 5597 5597 5596 5595 5594 5593 5592 5591 5590 5588 5587 5586 5585 5584 5582 5581 5580
5620 5620 5620 5620 5620 5620 5620 5620 5620 5620 5619 5619 5619 5619 5618 5618 5618 5617 5617 5617 5616 5616 5616 5615 5615 5614 5614 5613 5613 5612 5612 5611 5611 5610 5609 5609 5608 5607 5607 5606 5605 5604 5603 5603 5602 5601 5600 5599 5598 5597 5596 5595 5594 5593 5592 5592 5591 5590 5589 5587 5587 5585 5584 5583 5582 5580 5579 5577 5576
5620 5620 5620 5620 5620 5620 5620 5620 5619 5619 5619 5619 5618 5618 5618 5617 5617 5617 5616 5616 5615 5615 5615 5614 5614 5613 5612 5612 5612 5611 5610 5610 5609 5608 5607 5607 5606 5606 5605 5604 5603 5602 5602 5601 5600 5599 5598 5597 5596 5595 5594 5593 5592 5591 5590 5589 5588 5587 5586 5585 5584 5582 5581 5580 5579 5577 5576 5574 5573
5620 5620 5620 5620 5620 5620 5619 5619 5619 5619 5619 5618 5618 5617 5617 5617 5616 5616 5615 5615 5614 5614 5613 5613 5612 5612 5611 5611 5610 5609 5609 5608 5607 5607 5606 5605 5604 5603 5603 5602 5601 5600 5600 5599 5598 5598 5597 5596 5595 5594 5593 5592 5591 5590 5588 5587 5586 5585 5584 5583 5581 5580 5578 5577 5575 5574 5572 5571 5569
5619 5619 5619 5619 5619 5619 5619 5619 5618 5618 5618 5617 5617 5617 5616 5616 5615 5615 5614 5614 5613 5613 5612 5612 5611 5611 5610 5609 5608 5608 5607 5606 5606 5605 5604 5603 5602 5602 5601 5601 5600 5599 5598 5597 5597 5596 5595 5594 5593 5592 5591 5590 5589 5587 5586 5585 5584 5582 5581 5580 5578 5577 5575 5573 5571 5570 5568 5566 5564
5619 5619 5619 5619 5619 5618 5618 5618 5618 5617 5617 5617 5616 5616 5615 5615 5614 5614 5613 5612 5612 5612 5611 5611 5610 5609 5608 5608 5607 5606 5605 5605 5604 5603 5602 5602 5601 5601 5600 5599 5598 5597 5597 5596 5595 5594 5593 5592 5591 5590 5589 5587 5586 5585 5583 5582 5581 5579 5577 5576 5574 5572 5570 5568 5567 5565 5562 5561 5559
5618 5618 5618 5618 5618 5618 5617 5617 5617 5616 5616 5616 5615 5615 5614 5614 5613 5613 5612 5612 5611 5611 5610 5609 5609 5608 5607 5606 5606 5605 5604 5603 5602 5602 5601 5601 5600 5599 5598 5598 5597 5596 5595 5594 5593 5592 5591 5590 5588 5587 5586 5584 5582 5581 5580 5578 5577 5575 5573 5572 5570 5567 5566 5563 5561 5559 5557 5555 5553
5618 5618 5618 5617 5617 5617 5617 5616 5616 5615 5615 5614 5614 5614 5613 5613 5612 5612 5611 5611 5610 5609 5608 5608 5607 5606 5606 5605 5604 5603 5603 5602 5602 5601 5600 5599 5598 5598 5597 5596 5595 5594 5593 5592 5591 5589 5588 5587 5586 5584 5582 5581 5579 5577 5576 5574 5572 5571 5569 5567 5565 5563 5561 5558 5556 5554 5552 5549 5547